Overview Statistics Trail Chart Weather Telemetry Raw packets
 

This is the latest recevied weather packets stored in our database for station/object EB1BWO-11. If no packets are shown the sender has not sent any weather packets the latest 10 day(s).

<< 3 4 5 6 7 8 9 >>
Time Temp. Humidity Pressure Rain* Wind** Luminosity Snow
1788513161 32.22° C 49% 1023.8 hPa - - - -
1788512261 31.67° C 49% 1023.6 hPa - - - -
1788511360 30° C 52% 1023.3 hPa - - - -
1788510460 28.89° C 53% 1023.2 hPa - - - -
1788509560 27.22° C 55% 1023.2 hPa - - - -
1788508660 25.56° C 57% 1023 hPa - - - -
1788507760 24.44° C 57% 1022.9 hPa - - - -
1788506860 23.33° C 58% 1022.8 hPa - - - -
1788505960 22.22° C 59% 1022.8 hPa - - - -
1788505059 21.11° C 61% 1022.5 hPa - - - -
1788504159 19.44° C 60% 1022.4 hPa - - - -
1788503259 18.33° C 63% 1022.3 hPa - - - -
1788502359 17.22° C 63% 1022.2 hPa - - - -
1788501459 16.67° C 63% 1022.3 hPa - - - -
1788500559 16.67° C 63% 1022.3 hPa - - - -
1788499659 16.67° C 64% 1022.4 hPa - - - -
1788498758 16.67° C 63% 1022.2 hPa - - - -
1788497858 16.67° C 63% 1022.1 hPa - - - -
1788496958 16.67° C 63% 1022.1 hPa - - - -
1788496058 17.22° C 63% 1022.1 hPa - - - -
1788495158 17.22° C 63% 1022 hPa - - - -
1788494258 17.22° C 63% 1021.9 hPa - - - -
1788493358 17.78° C 62% 1021.8 hPa - - - -
1788492458 18.33° C 62% 1021.7 hPa - - - -
1788491557 18.33° C 61% 1021.6 hPa - - - -

* Rain since midnight (hover to see other rain measurements)
** Current wind speed in m/s (hover to see current wind gust speed)